TimeEST,TemperatureF,Dew PointF,Humidity,Sea Level PressureIn,VisibilityMPH,Wind Direction,Wind SpeedMPH,Gust SpeedMPH,PrecipitationIn,Events,Conditions,WindDirDegrees,DateUTC
12:15 AM,31.6,30.9,97,30.14,10.0,Calm,Calm,-,N/A,,Clear,0,2014-01-13 05:15:00
12:35 AM,30.7,30.0,97,30.14,10.0,Calm,Calm,-,N/A,,Clear,0,2014-01-13 05:35:00
12:55 AM,30.2,29.3,96,30.13,10.0,Calm,Calm,-,N/A,,Clear,0,2014-01-13 05:55:00
1:15 AM,30.0,29.5,98,30.14,10.0,Calm,Calm,-,N/A,,Clear,0,2014-01-13 06:15:00
1:35 AM,30.2,29.7,98,30.13,10.0,Calm,Calm,-,N/A,,Clear,0,2014-01-13 06:35:00
1:55 AM,29.8,29.3,98,30.14,10.0,Calm,Calm,-,N/A,,Clear,0,2014-01-13 06:55:00
2:15 AM,29.7,29.1,98,30.14,10.0,Calm,Calm,-,N/A,,Clear,0,2014-01-13 07:15:00
2:35 AM,29.7,29.1,98,30.14,10.0,Calm,Calm,-,N/A,,Clear,0,2014-01-13 07:35:00
2:55 AM,29.3,28.9,99,30.14,10.0,Calm,Calm,-,N/A,,Clear,0,2014-01-13 07:55:00
3:15 AM,29.3,28.9,99,30.13,10.0,Calm,Calm,-,N/A,,Clear,0,2014-01-13 08:15:00
3:35 AM,28.4,28.0,99,30.13,10.0,Calm,Calm,-,N/A,,Clear,0,2014-01-13 08:35:00
3:55 AM,29.1,28.4,97,30.13,10.0,Calm,Calm,-,N/A,,Clear,0,2014-01-13 08:55:00
4:15 AM,28.2,27.7,98,30.12,10.0,Calm,Calm,-,N/A,,Clear,0,2014-01-13 09:15:00
4:35 AM,28.4,28.2,99,30.13,10.0,Calm,Calm,-,N/A,,Clear,0,2014-01-13 09:35:00
4:55 AM,29.1,28.6,98,30.13,10.0,Calm,Calm,-,N/A,,Clear,0,2014-01-13 09:55:00
5:15 AM,28.2,27.9,99,30.13,10.0,Calm,Calm,-,N/A,,Clear,0,2014-01-13 10:15:00
5:35 AM,28.4,27.9,98,30.13,10.0,Calm,Calm,-,N/A,,Clear,0,2014-01-13 10:35:00
5:55 AM,28.2,27.5,97,30.13,10.0,Calm,Calm,-,N/A,,Clear,0,2014-01-13 10:55:00
6:15 AM,28.2,27.7,98,30.13,10.0,Calm,Calm,-,N/A,,Clear,0,2014-01-13 11:15:00
6:35 AM,28.4,27.7,97,30.12,10.0,Calm,Calm,-,N/A,,Clear,0,2014-01-13 11:35:00
6:55 AM,28.2,27.5,97,30.11,10.0,Calm,Calm,-,N/A,,Clear,0,2014-01-13 11:55:00
7:15 AM,28.0,27.1,96,30.11,10.0,Calm,Calm,-,N/A,,Clear,0,2014-01-13 12:15:00
7:35 AM,28.0,27.3,97,30.11,10.0,Calm,Calm,-,N/A,,Clear,0,2014-01-13 12:35:00
7:55 AM,27.3,26.8,98,30.11,10.0,Calm,Calm,-,N/A,,Clear,0,2014-01-13 12:55:00
8:15 AM,28.4,28.0,99,30.10,10.0,Calm,Calm,-,N/A,,Clear,0,2014-01-13 13:15:00
8:35 AM,30.0,29.5,98,30.10,10.0,Calm,Calm,-,N/A,,Clear,0,2014-01-13 13:35:00
8:55 AM,33.6,32.7,96,30.11,10.0,Calm,Calm,-,N/A,,Clear,0,2014-01-13 13:55:00
9:15 AM,40.6,34.7,79,30.12,10.0,SW,3.5,-,N/A,,Clear,230,2014-01-13 14:15:00
9:35 AM,43.2,34.5,72,30.12,10.0,SW,4.6,-,N/A,,Clear,230,2014-01-13 14:35:00
9:55 AM,45.9,34.7,65,30.12,10.0,SW,5.8,-,N/A,,Clear,220,2014-01-13 14:55:00
10:15 AM,48.2,34.5,59,30.12,10.0,SW,5.8,-,N/A,,Clear,230,2014-01-13 15:15:00
10:35 AM,50.7,34.9,55,30.12,10.0,WSW,6.9,-,N/A,,Clear,240,2014-01-13 15:35:00
10:55 AM,51.4,34.3,52,30.11,10.0,WSW,4.6,-,N/A,,Clear,240,2014-01-13 15:55:00
11:15 AM,54.5,34.9,48,30.10,10.0,SW,9.2,-,N/A,,Clear,220,2014-01-13 16:15:00
11:35 AM,56.1,33.6,43,30.09,10.0,SW,11.5,18.4,N/A,,Clear,230,2014-01-13 16:35:00
11:55 AM,55.2,32.0,41,30.09,10.0,SW,13.8,23.0,N/A,,Clear,230,2014-01-13 16:55:00
12:15 PM,54.5,32.2,43,30.09,10.0,SW,11.5,20.7,N/A,,Clear,230,2014-01-13 17:15:00
12:35 PM,55.6,32.7,42,30.05,10.0,SW,4.6,-,N/A,,Clear,230,2014-01-13 17:35:00
12:55 PM,55.9,32.2,41,30.05,10.0,WSW,15.0,19.6,N/A,,Clear,250,2014-01-13 17:55:00
1:15 PM,55.2,32.0,41,30.04,10.0,SW,6.9,-,N/A,,Clear,230,2014-01-13 18:15:00
1:35 PM,56.3,32.0,40,30.04,10.0,SW,10.4,-,N/A,,Clear,230,2014-01-13 18:35:00
1:55 PM,55.8,32.2,41,30.02,10.0,SW,10.4,-,N/A,,Clear,220,2014-01-13 18:55:00
2:15 PM,56.1,32.0,40,30.01,10.0,WSW,8.1,16.1,N/A,,Clear,240,2014-01-13 19:15:00
2:35 PM,55.9,32.5,41,30.02,10.0,SSW,6.9,-,N/A,,Clear,210,2014-01-13 19:35:00
2:55 PM,55.4,31.8,41,30.02,10.0,SW,8.1,-,N/A,,Clear,220,2014-01-13 19:55:00
3:15 PM,55.4,32.2,41,30.01,10.0,SW,4.6,-,N/A,,Clear,230,2014-01-13 20:15:00
3:35 PM,55.0,32.0,42,30.01,10.0,SW,4.6,-,N/A,,Clear,220,2014-01-13 20:35:00
3:55 PM,54.5,32.5,43,30.01,10.0,SSW,4.6,-,N/A,,Clear,210,2014-01-13 20:55:00
4:15 PM,54.1,32.0,43,30.01,10.0,SW,4.6,-,N/A,,Clear,220,2014-01-13 21:15:00
4:35 PM,53.8,32.0,44,30.01,10.0,SSW,5.8,-,N/A,,Clear,210,2014-01-13 21:35:00
4:55 PM,53.6,32.0,44,30.00,10.0,SW,3.5,-,N/A,,Clear,230,2014-01-13 21:55:00
5:15 PM,52.7,32.4,46,30.00,10.0,SW,3.5,-,N/A,,Clear,220,2014-01-13 22:15:00
5:35 PM,52.2,32.5,47,29.99,10.0,Calm,Calm,-,N/A,,Clear,0,2014-01-13 22:35:00
5:55 PM,51.4,32.9,49,29.99,10.0,Calm,Calm,-,N/A,,Clear,0,2014-01-13 22:55:00
6:15 PM,51.4,32.9,49,30.00,10.0,Calm,Calm,-,N/A,,Clear,0,2014-01-13 23:15:00
6:35 PM,48.7,34.0,57,29.98,10.0,Calm,Calm,-,N/A,,Clear,0,2014-01-13 23:35:00
6:55 PM,48.2,34.5,59,29.99,10.0,Calm,Calm,-,N/A,,Clear,0,2014-01-13 23:55:00
7:15 PM,47.8,34.7,60,29.99,10.0,Calm,Calm,-,N/A,,Clear,0,2014-01-14 00:15:00
7:35 PM,46.6,35.6,66,29.98,10.0,Calm,Calm,-,N/A,,Mostly Cloudy,0,2014-01-14 00:35:00
7:55 PM,48.0,35.6,62,29.98,10.0,Calm,Calm,-,N/A,,Overcast,0,2014-01-14 00:55:00
8:15 PM,45.9,37.8,73,29.98,10.0,Calm,Calm,-,N/A,,Light Drizzle,0,2014-01-14 01:15:00
8:35 PM,46.8,36.5,67,29.98,10.0,Calm,Calm,-,N/A,Rain,Light Rain,0,2014-01-14 01:35:00
8:55 PM,47.7,39.0,72,29.99,10.0,Calm,Calm,-,N/A,Rain,Light Rain,0,2014-01-14 01:55:00
9:15 PM,45.9,40.6,82,29.99,10.0,Calm,Calm,-,N/A,Rain,Light Rain,0,2014-01-14 02:15:00
9:35 PM,47.3,40.1,76,30.00,10.0,WSW,6.9,-,N/A,Rain,Light Rain,240,2014-01-14 02:35:00
9:55 PM,46.9,40.3,78,29.98,10.0,WSW,4.6,-,0.01,Rain,Light Rain,250,2014-01-14 02:55:00
10:15 PM,46.4,41.2,82,29.97,10.0,WSW,5.8,-,0.02,Rain,Light Rain,240,2014-01-14 03:15:00
10:35 PM,45.9,42.1,87,29.97,10.0,WSW,5.8,-,0.02,Rain,Light Rain,250,2014-01-14 03:35:00
10:55 PM,45.7,42.3,88,29.98,10.0,West,9.2,-,0.03,Rain,Light Rain,270,2014-01-14 03:55:00
11:15 PM,45.9,42.1,87,29.97,10.0,West,8.1,-,N/A,Rain,Rain,260,2014-01-14 04:15:00
11:35 PM,45.5,42.6,90,29.96,10.0,WSW,5.8,-,N/A,,Light Drizzle,250,2014-01-14 04:35:00
11:55 PM,45.5,42.8,90,29.94,10.0,WSW,3.5,-,N/A,,Overcast,250,2014-01-14 04:55:00